McCordsville, IN

11:59 PM EST on February 06, 2016 (GMT -0500)
Mount Comfort

Weather History for KMQJ - March, 2014

Change the Weather History Date:

Wednesday, March 19, 2014

  Actual Average (KEYE) Record (KEYE)
Temperature  
Mean Temperature 44 °F 44 °F  
Max Temperature 53 °F 53 °F 81 °F (2012)
Min Temperature 35 °F 35 °F 25 °F (2006)
Degree Days  
Heating Degree Days 21 21  
Month to date heating degree days 471  
Since 1 July heating degree days 4596  
Cooling Degree Days 0 0  
Month to date cooling degree days 0  
Year to date cooling degree days 0  
Moisture  
Dew Point 40 °F    
Average Humidity 83    
Maximum Humidity 100    
Minimum Humidity 71    
Precipitation  
Precipitation 0.00 in 0.12 in 1.10 in (2008)
Month to date precipitation 1.69  
Year to date precipitation 6.03  
Sea Level Pressure  
Sea Level Pressure 29.81 in    
Wind  
Wind Speed 14 mph (SW)    
Max Wind Speed 29 mph    
Max Gust Speed 38 mph    
Visibility 9 miles    
Events      
T = Trace of Precipitation, MM = Missing Value Source: NWS Daily Summary

Daily Weather History Graph

Daily Weather History Graph

Search for Another Location

Airport or City:

Trip Planner

Search our weather history database for the weather conditions in past years. The results will help you decide how hot, cold, wet, or windy it might be!

Date:

Astronomy

Mar. 19, 2014 Rise Set
Actual Time 7:48 AM EDT 7:54 PM EDT
Civil Twilight 7:21 AM EDT 8:21 PM EDT
Nautical Twilight 6:50 AM EDT 8:53 PM EDT
Astronomical Twilight 6:18 AM EDT 9:25 PM EDT
Moon 11:12 PM EDT (3/19) 9:14 AM EDT (3/19)
Length of Visible Light 12h 59m
Length of Day
12h 06m
Waning Gibbous, 91% of the Moon is Illuminated
Mar 19
Waning Gibbous
Mar 23
Last Quarter
Mar 30
New
Apr 7
First Quarter
Apr 15
Full

Hourly Weather History & Observations

Time (EDT) Temp. Windchill Dew Point Humidity Pressure Visibility Wind Dir Wind Speed Gust Speed Precip Events Conditions
12:15 AM 46.4 °F 42.9 °F 41.0 °F 81% 29.81 in 10.0 mi South 6.9 mph - N/A   Overcast
12:35 AM 46.4 °F 41.9 °F 41.0 °F 81% 29.80 in 10.0 mi South 9.2 mph - N/A   Overcast
12:54 AM 46.4 °F 41.9 °F 41.0 °F 81% 29.79 in 10.0 mi South 9.2 mph - N/A   Overcast
1:15 AM 46.4 °F 41.9 °F 41.0 °F 81% 29.80 in 10.0 mi South 9.2 mph - N/A   Mostly Cloudy
1:34 AM 46.4 °F 41.9 °F 41.0 °F 81% 29.79 in 10.0 mi South 9.2 mph - N/A   Mostly Cloudy
1:55 AM 46.4 °F 42.4 °F 42.8 °F 87% 29.79 in 10.0 mi South 8.1 mph - N/A   Overcast
2:15 AM 48.2 °F - 42.8 °F 82% 29.79 in 10.0 mi South 12.7 mph 19.6 mph N/A   Overcast
2:34 AM 48.2 °F - 42.8 °F 82% 29.79 in 10.0 mi South 15.0 mph 20.7 mph N/A   Overcast
2:55 AM 48.2 °F - 42.8 °F 82% 29.78 in 10.0 mi South 9.2 mph 16.1 mph N/A   Overcast
3:14 AM 48.2 °F - 42.8 °F 82% 29.77 in 10.0 mi South 10.4 mph - N/A   Mostly Cloudy
3:34 AM 48.2 °F - 42.8 °F 82% 29.77 in 10.0 mi SSW 10.4 mph - N/A   Mostly Cloudy
3:55 AM 48.2 °F - 42.8 °F 82% 29.75 in 10.0 mi SSW 13.8 mph 20.7 mph N/A   Mostly Cloudy
4:14 AM 46.4 °F 40.7 °F 41.0 °F 81% 29.75 in 10.0 mi South 12.7 mph 19.6 mph N/A   Scattered Clouds
4:35 AM 46.4 °F 41.5 °F 41.0 °F 81% 29.74 in 10.0 mi South 10.4 mph 17.3 mph N/A   Clear
4:54 AM 46.4 °F 40.7 °F 42.8 °F 87% 29.74 in 10.0 mi South 12.7 mph - N/A   Scattered Clouds
5:15 AM 46.4 °F 41.5 °F 42.8 °F 87% 29.74 in 10.0 mi South 10.4 mph - N/A   Mostly Cloudy
5:35 AM 46.4 °F 41.1 °F 42.8 °F 87% 29.75 in 10.0 mi South 11.5 mph - N/A   Mostly Cloudy
5:54 AM 44.6 °F 38.8 °F 42.8 °F 93% 29.74 in 10.0 mi South 11.5 mph - N/A   Overcast
6:15 AM 44.6 °F 38.8 °F 42.8 °F 93% 29.74 in 10.0 mi South 11.5 mph 20.7 mph N/A   Mostly Cloudy
6:34 AM 44.6 °F 38.1 °F 42.8 °F 93% 29.73 in 10.0 mi South 13.8 mph 19.6 mph N/A   Scattered Clouds
6:51 AM 44.6 °F 38.1 °F 41.0 °F 87% 29.72 in 10.0 mi South 13.8 mph 18.4 mph N/A   Scattered Clouds
7:15 AM 44.6 °F 38.1 °F 41.0 °F 87% 29.72 in 10.0 mi South 13.8 mph 18.4 mph N/A   Scattered Clouds
7:35 AM 44.6 °F 37.8 °F 42.8 °F 93% 29.72 in 10.0 mi South 15.0 mph 21.9 mph N/A   Scattered Clouds
7:54 AM 44.6 °F 37.4 °F 42.8 °F 93% 29.71 in 10.0 mi South 16.1 mph 19.6 mph N/A   Scattered Clouds
8:15 AM 46.4 °F 40.7 °F 42.8 °F 87% 29.72 in 10.0 mi South 12.7 mph 18.4 mph N/A   Mostly Cloudy
8:35 AM 46.4 °F 40.4 °F 42.8 °F 87% 29.72 in 10.0 mi South 13.8 mph 19.6 mph N/A   Mostly Cloudy
8:54 AM 46.4 °F 40.1 °F 42.8 °F 87% 29.72 in 10.0 mi SSW 15.0 mph 18.4 mph N/A   Mostly Cloudy
9:15 AM 48.2 °F - 42.8 °F 82% 29.72 in 10.0 mi SSW 16.1 mph 21.9 mph N/A   Overcast
9:35 AM 48.2 °F - 44.6 °F 87% 29.72 in 10.0 mi SSW 12.7 mph 19.6 mph N/A   Overcast
9:55 AM 48.2 °F - 44.6 °F 87% 29.72 in 10.0 mi SSW 13.8 mph - N/A   Overcast
10:15 AM 48.2 °F - 44.6 °F 87% 29.72 in 10.0 mi South 15.0 mph 19.6 mph N/A   Overcast
10:34 AM 48.2 °F - 44.6 °F 87% 29.72 in 10.0 mi SSW 11.5 mph 16.1 mph N/A   Overcast
10:55 AM 48.2 °F - 44.6 °F 87% 29.72 in 10.0 mi South 11.5 mph - N/A   Overcast
11:15 AM 50.0 °F - 44.6 °F 82% 29.72 in 10.0 mi South 11.5 mph 17.3 mph N/A   Overcast
11:34 AM 50.0 °F - 44.6 °F 82% 29.72 in 10.0 mi SSW 12.7 mph - N/A   Overcast
11:55 AM 50.0 °F - 46.4 °F 87% 29.72 in 10.0 mi SSW 15.0 mph 20.7 mph N/A   Overcast
12:15 PM 50.0 °F - 46.4 °F 87% 29.72 in 10.0 mi SSW 15.0 mph 18.4 mph N/A   Overcast
12:34 PM 50.0 °F - 46.4 °F 87% 29.72 in 10.0 mi SSW 13.8 mph 18.4 mph N/A   Overcast
12:55 PM 50.0 °F - 46.4 °F 87% 29.73 in 10.0 mi SSW 12.7 mph 18.4 mph N/A   Mostly Cloudy
1:14 PM 51.8 °F - 44.6 °F 76% 29.73 in 10.0 mi SW 15.0 mph 20.7 mph N/A   Mostly Cloudy
1:35 PM 51.8 °F - 44.6 °F 76% 29.74 in 10.0 mi SW 16.1 mph 21.9 mph N/A   Mostly Cloudy
1:55 PM 51.8 °F - 44.6 °F 76% 29.74 in 10.0 mi SW 15.0 mph 20.7 mph N/A   Mostly Cloudy
2:14 PM 53.6 °F - 44.6 °F 72% 29.74 in 10.0 mi WSW 21.9 mph 31.1 mph N/A   Mostly Cloudy
2:35 PM 51.8 °F - 42.8 °F 71% 29.75 in 10.0 mi WSW 17.3 mph 25.3 mph N/A   Mostly Cloudy
2:55 PM 51.8 °F - 42.8 °F 71% 29.76 in 10.0 mi West 20.7 mph 32.2 mph N/A   Mostly Cloudy
3:14 PM 50.0 °F - 42.8 °F 76% 29.77 in 10.0 mi West 24.2 mph 32.2 mph N/A   Mostly Cloudy
3:35 PM 46.4 °F 39.8 °F 46.4 °F 100% 29.79 in 3.0 mi West 16.1 mph 29.9 mph N/A   Overcast
3:55 PM 48.2 °F - 41.0 °F 76% 29.79 in 7.0 mi West 27.6 mph 35.7 mph N/A   Mostly Cloudy
4:14 PM 46.4 °F 38.1 °F 39.2 °F 76% 29.81 in 10.0 mi West 24.2 mph 32.2 mph N/A   Mostly Cloudy
4:35 PM 44.6 °F 35.7 °F 39.2 °F 81% 29.82 in 7.0 mi West 24.2 mph 35.7 mph N/A   Overcast
4:55 PM 44.6 °F 35.7 °F 39.2 °F 81% 29.83 in 7.0 mi West 24.2 mph 34.5 mph N/A   Overcast
5:14 PM 44.6 °F 34.9 °F 37.4 °F 76% 29.85 in 5.0 mi West 28.8 mph 38.0 mph N/A   Overcast
5:35 PM 42.8 °F 32.9 °F 37.4 °F 81% 29.87 in 5.0 mi West 26.5 mph 33.4 mph N/A   Overcast
5:54 PM 42.8 °F 33.1 °F 37.4 °F 81% 29.87 in 4.0 mi West 25.3 mph 31.1 mph N/A   Overcast
6:15 PM 41.0 °F 30.9 °F 37.4 °F 87% 29.89 in 5.0 mi West 24.2 mph 33.4 mph N/A   Overcast
6:35 PM 41.0 °F 31.1 °F 35.6 °F 81% 29.90 in 5.0 mi West 23.0 mph 29.9 mph N/A   Overcast
6:54 PM 41.0 °F 31.4 °F 35.6 °F 81% 29.92 in 5.0 mi West 21.9 mph 29.9 mph N/A   Overcast
7:15 PM 41.0 °F 30.9 °F 35.6 °F 81% 29.93 in 5.0 mi West 24.2 mph 29.9 mph N/A   Overcast
7:35 PM 41.0 °F 32.2 °F 35.6 °F 81% 29.94 in 7.0 mi West 18.4 mph 25.3 mph N/A   Overcast
7:54 PM 41.0 °F 31.4 °F 33.8 °F 76% 29.96 in 7.0 mi West 21.9 mph 31.1 mph N/A   Overcast
8:15 PM 39.2 °F 29.8 °F 33.8 °F 81% 29.96 in 7.0 mi WNW 18.4 mph 27.6 mph N/A   Overcast
8:35 PM 39.2 °F 29.0 °F 33.8 °F 81% 29.96 in 7.0 mi West 21.9 mph - N/A   Overcast
8:54 PM 39.2 °F 28.5 °F 33.8 °F 81% 29.97 in 7.0 mi West 24.2 mph 27.6 mph N/A   Overcast
9:15 PM 39.2 °F 28.7 °F 33.8 °F 81% 29.98 in 7.0 mi West 23.0 mph 28.8 mph N/A   Overcast
9:34 PM 39.2 °F 28.7 °F 33.8 °F 81% 29.99 in 7.0 mi West 23.0 mph 26.5 mph N/A   Overcast
9:54 PM 37.4 °F 26.9 °F 32.0 °F 81% 30.00 in 7.0 mi West 20.7 mph 29.9 mph N/A   Overcast
10:15 PM 37.4 °F 26.1 °F 32.0 °F 81% 30.01 in 7.0 mi WNW 24.2 mph 28.8 mph N/A   Overcast
10:34 PM 35.6 °F 25.2 °F 30.2 °F 81% 30.02 in 7.0 mi WNW 18.4 mph 25.3 mph N/A   Overcast
10:55 PM 35.6 °F 25.2 °F 30.2 °F 81% 30.03 in 7.0 mi West 18.4 mph 27.6 mph N/A   Overcast
11:15 PM 35.6 °F 24.8 °F 30.2 °F 81% 30.04 in 7.0 mi WNW 19.6 mph 28.8 mph N/A   Overcast
11:34 PM 35.6 °F 23.4 °F 30.2 °F 81% 30.04 in 10.0 mi WNW 25.3 mph 32.2 mph N/A   Mostly Cloudy
11:55 PM 35.6 °F 26.6 °F 28.4 °F 75% 30.04 in 10.0 mi West 13.8 mph - N/A   Mostly Cloudy